| time (UTC) | temp C | wind direction | speed KPH | gust KPH | rain 1hr cm | rain 24hr cm | rain mn cm | humidity % | barometer mb |
| 20260508085508 | 10 | 360 | 0.0 | 1.6 | 0.00 | 2.01 | 0.00 | 95 | 1014.7 |
| 20260508085005 | 10 | 360 | 0.0 | 0.0 | 0.00 | 2.01 | 0.00 | 95 | 1014.8 |
| 20260508084515 | 10 | 360 | 0.0 | 0.0 | 0.00 | 2.01 | 0.00 | 95 | 1014.7 |
| 20260508084008 | 10 | 360 | 0.0 | 1.6 | 0.00 | 2.01 | 0.00 | 95 | 1014.5 |
| 20260508083507 | 10 | 360 | 0.0 | 1.6 | 0.00 | 2.01 | 0.00 | 95 | 1014.6 |
| 20260508083022 | 10 | 360 | 0.0 | 1.6 | 0.00 | 2.03 | 0.00 | 95 | 1014.5 |
| 20260508082507 | 10 | 360 | 0.0 | 1.6 | 0.00 | 2.11 | 0.00 | 95 | 1014.4 |
| 20260508082011 | 10 | 360 | 0.0 | 1.6 | 0.00 | 2.16 | 0.00 | 95 | 1014.5 |
| 20260508081520 | 10 | 360 | 0.0 | 0.0 | 0.00 | 2.18 | 0.00 | 95 | 1014.5 |
| 20260508081006 | 10 | 360 | 0.0 | 0.0 | 0.00 | 2.21 | 0.00 | 95 | 1014.3 |
| 20260508080518 | 10 | 360 | 0.0 | 1.6 | 0.00 | 2.21 | 0.00 | 95 | 1014.2 |
| 20260508075510 | 10 | 360 | 0.0 | 1.6 | 0.00 | 2.21 | 0.00 | 95 | 1014.2 |
| 20260508075011 | 10 | 360 | 0.0 | 0.0 | 0.00 | 2.24 | 0.00 | 95 | 1014.1 |
| 20260508074525 | 10 | 360 | 0.0 | 0.0 | 0.00 | 2.24 | 0.00 | 95 | 1014.0 |
| 20260508074006 | 10 | 360 | 0.0 | 0.0 | 0.00 | 2.26 | 0.00 | 95 | 1014.0 |
| 20260508073507 | 10 | 360 | 0.0 | 0.0 | 0.00 | 2.26 | 0.00 | 94 | 1014.1 |
| 20260508073017 | 10 | 360 | 0.0 | 0.0 | 0.00 | 2.29 | 0.00 | 94 | 1013.9 |
| 20260508072508 | 10 | 360 | 0.0 | 0.0 | 0.00 | 2.29 | 0.00 | 94 | 1013.9 |
| 20260508072008 | 11 | 360 | 0.0 | 0.0 | 0.00 | 2.29 | 0.00 | 95 | 1013.9 |
| 20260508071520 | 11 | 360 | 0.0 | 0.0 | 0.00 | 2.29 | 0.00 | 95 | 1013.9 |
| 20260508071009 | 11 | 360 | 0.0 | 0.0 | 0.00 | 2.31 | 0.00 | 95 | 1013.9 |
| 20260508070513 | 11 | 360 | 0.0 | 0.0 | 0.00 | 2.31 | 0.00 | 95 | 1013.8 |
| 20260508070023 | 11 | 360 | 0.0 | 0.0 | 0.00 | 2.31 | 0.00 | 95 | 1013.7 |
| 20260508065507 | 11 | 360 | 0.0 | 0.0 | 0.00 | 2.31 | 0.00 | 95 | 1013.7 |
| 20260508065011 | 11 | 360 | 0.0 | 0.0 | 0.00 | 2.31 | 0.00 | 95 | 1013.8 |
| 20260508064520 | 11 | 360 | 0.0 | 0.0 | 0.00 | 2.31 | 0.00 | 94 | 1013.8 |
| 20260508064010 | 11 | 360 | 0.0 | 1.6 | 0.00 | 2.31 | 0.00 | 94 | 1013.8 |
| 20260508063508 | 11 | 360 | 0.0 | 1.6 | 0.00 | 2.31 | 0.00 | 95 | 1013.8 |
| 20260508063022 | 11 | 360 | 0.0 | 0.0 | 0.00 | 2.31 | 0.00 | 94 | 1013.8 |
| 20260508062507 | 11 | 360 | 0.0 | 0.0 | 0.00 | 2.31 | 0.00 | 94 | 1013.7 |
| 20260508062007 | 11 | 360 | 0.0 | 0.0 | 0.00 | 2.31 | 0.00 | 94 | 1013.7 |
| 20260508061529 | 11 | 360 | 0.0 | 0.0 | 0.00 | 2.31 | 0.00 | 95 | 1013.7 |
| 20260508061014 | 11 | 360 | 0.0 | 0.0 | 0.00 | 2.31 | 0.00 | 95 | 1013.7 |
| 20260508060509 | 11 | 360 | 0.0 | 0.0 | 0.00 | 2.31 | 0.00 | 94 | 1013.7 |
| 20260508060023 | 11 | 360 | 0.0 | 1.6 | 0.00 | 2.31 | 0.00 | 95 | 1013.7 |
| 20260508055509 | 11 | 360 | 0.0 | 1.6 | 0.00 | 2.31 | 0.00 | 95 | 1013.6 |
| 20260508055013 | 11 | 360 | 0.0 | 1.6 | 0.00 | 2.31 | 0.00 | 94 | 1013.7 |
| 20260508054523 | 11 | 360 | 0.0 | 1.6 | 0.00 | 2.31 | 0.00 | 95 | 1013.7 |
| 20260508054006 | 12 | 360 | 0.0 | 1.6 | 0.00 | 2.31 | 0.00 | 95 | 1013.5 |
| 20260508053506 | 12 | 360 | 0.0 | 1.6 | 0.00 | 2.31 | 0.00 | 95 | 1013.4 |
| 20260508053018 | 12 | 360 | 0.0 | 1.6 | 0.00 | 2.31 | 0.00 | 95 | 1013.4 |
| 20260508052506 | 12 | 360 | 0.0 | 1.6 | 0.00 | 2.31 | 0.00 | 95 | 1013.5 |
| 20260508052007 | 12 | 360 | 0.0 | 1.6 | 0.00 | 2.31 | 0.00 | 95 | 1013.6 |
| 20260508051520 | 12 | 360 | 0.0 | 0.0 | 0.00 | 2.31 | 0.00 | 95 | 1013.5 |
| 20260508051011 | 12 | 360 | 0.0 | 0.0 | 0.00 | 2.34 | 0.00 | 95 | 1013.4 |
| 20260508050509 | 12 | 360 | 0.0 | 0.0 | 0.00 | 2.34 | 0.00 | 95 | 1013.3 |
| 20260508050020 | 12 | 360 | 0.0 | 0.0 | 0.00 | 2.49 | 0.00 | 95 | 1013.4 |
| 20260508045505 | 12 | 360 | 0.0 | 0.0 | 0.00 | 2.74 | 0.00 | 95 | 1013.4 |
| 20260508045009 | 12 | 360 | 0.0 | 0.0 | 0.00 | 2.82 | 0.00 | 95 | 1013.5 |
| 20260508044522 | 12 | 360 | 0.0 | 0.0 | 0.00 | 2.87 | 0.00 | 95 | 1013.4 |
| 20260508044004 | 12 | 360 | 0.0 | 0.0 | 0.00 | 2.92 | 0.00 | 94 | 1013.4 |
| 20260508043508 | 12 | 360 | 0.0 | 0.0 | 0.00 | 3.07 | 0.00 | 95 | 1013.2 |
| 20260508043012 | 12 | 360 | 0.0 | 0.0 | 0.00 | 3.23 | 0.00 | 95 | 1013.3 |
| 20260508042505 | 12 | 360 | 0.0 | 0.0 | 0.00 | 3.30 | 0.00 | 95 | 1013.4 |
| 20260508042006 | 12 | 360 | 0.0 | 1.6 | 0.00 | 3.30 | 0.00 | 95 | 1013.3 |
| 20260508041520 | 12 | 360 | 0.0 | 1.6 | 0.00 | 3.30 | 0.00 | 95 | 1013.3 |
| 20260508041008 | 12 | 360 | 0.0 | 0.0 | 0.00 | 3.30 | 0.00 | 95 | 1013.3 |
| 20260508040506 | 12 | 360 | 0.0 | 1.6 | 0.00 | 3.30 | 0.00 | 95 | 1013.3 |
| 20260508040022 | 12 | 360 | 0.0 | 1.6 | 0.00 | 3.30 | 0.00 | 95 | 1013.1 |
| 20260508035007 | 12 | 360 | 0.0 | 1.6 | 0.00 | 3.30 | 3.30 | 95 | 1013.3 |
| 20260508034533 | 12 | 360 | 0.0 | 1.6 | 0.00 | 3.30 | 3.30 | 95 | 1013.1 |
| 20260508034007 | 12 | 360 | 0.0 | 1.6 | 0.00 | 3.30 | 3.30 | 95 | 1013.0 |
| 20260508033509 | 12 | 360 | 0.0 | 1.6 | 0.00 | 3.30 | 3.30 | 95 | 1013.0 |
| 20260508032512 | 12 | 360 | 0.0 | 1.6 | 0.00 | 3.33 | 3.30 | 95 | 1012.7 |
| 20260508031518 | 12 | 360 | 0.0 | 3.2 | 0.00 | 3.33 | 3.30 | 95 | 1012.7 |
| 20260508031004 | 12 | 360 | 0.0 | 3.2 | 0.00 | 3.33 | 3.30 | 95 | 1012.9 |
| 20260508030507 | 12 | 360 | 0.0 | 3.2 | 0.00 | 3.33 | 3.30 | 95 | 1012.9 |
| 20260508030020 | 12 | 360 | 0.0 | 1.6 | 0.00 | 3.33 | 3.30 | 95 | 1012.5 |
| 20260508025508 | 12 | 360 | 0.0 | 1.6 | 0.00 | 3.33 | 3.30 | 95 | 1012.5 |
| 20260508025012 | 12 | 360 | 0.0 | 1.6 | 0.00 | 3.33 | 3.30 | 94 | 1012.5 |
| 20260508024545 | 12 | 360 | 0.0 | 1.6 | 0.00 | 3.33 | 3.30 | 94 | 1012.4 |
| 20260508024003 | 12 | 360 | 0.0 | 1.6 | 0.00 | 3.33 | 3.30 | 94 | 1012.4 |
| 20260508023502 | 12 | 360 | 0.0 | 0.0 | 0.00 | 3.33 | 3.30 | 94 | 1012.4 |
| 20260508023010 | 12 | 360 | 0.0 | 0.0 | 0.00 | 3.33 | 3.30 | 94 | 1012.3 |
| 20260508022503 | 12 | 360 | 0.0 | 0.0 | 0.00 | 3.33 | 3.30 | 94 | 1012.3 |
| 20260508022003 | 12 | 360 | 0.0 | 1.6 | 0.00 | 3.33 | 3.30 | 94 | 1012.3 |
| 20260508021519 | 12 | 360 | 0.0 | 3.2 | 0.03 | 3.33 | 3.30 | 94 | 1012.3 |
| 20260508021007 | 12 | 360 | 0.0 | 3.2 | 0.03 | 3.33 | 3.30 | 95 | 1012.3 |
| 20260508020504 | 12 | 360 | 0.0 | 1.6 | 0.03 | 3.33 | 3.30 | 95 | 1012.0 |
| 20260508020018 | 12 | 360 | 0.0 | 1.6 | 0.03 | 3.33 | 3.30 | 95 | 1011.9 |
| 20260508015506 | 12 | 360 | 0.0 | 3.2 | 0.03 | 3.33 | 3.30 | 94 | 1011.9 |
| 20260508015003 | 12 | 360 | 0.0 | 3.2 | 0.03 | 3.33 | 3.30 | 94 | 1012.1 |
| 20260508014504 | 12 | 360 | 0.0 | 3.2 | 0.03 | 3.33 | 3.30 | 94 | 1012.1 |
| 20260508014003 | 12 | 360 | 0.0 | 3.2 | 0.03 | 3.33 | 3.30 | 94 | 1012.1 |
| 20260508013504 | 12 | 360 | 0.0 | 3.2 | 0.03 | 3.33 | 3.30 | 94 | 1011.9 |
| 20260508013010 | 12 | 360 | 0.0 | 1.6 | 0.05 | 3.33 | 3.30 | 94 | 1011.9 |
| 20260508012502 | 12 | 360 | 0.0 | 1.6 | 0.08 | 3.33 | 3.30 | 94 | 1011.8 |
| 20260508012002 | 12 | 360 | 0.0 | 3.2 | 0.10 | 3.33 | 3.30 | 94 | 1011.7 |
| 20260508011509 | 12 | 360 | 0.0 | 3.2 | 0.10 | 3.30 | 3.28 | 94 | 1011.6 |
| 20260508011003 | 12 | 360 | 0.0 | 3.2 | 0.15 | 3.30 | 3.28 | 94 | 1011.3 |
| 20260508010503 | 12 | 360 | 0.0 | 4.8 | 0.15 | 3.30 | 3.28 | 94 | 1011.1 |
| 20260508010016 | 12 | 360 | 0.0 | 4.8 | 0.15 | 3.30 | 3.28 | 94 | 1011.1 |
| 20260508005503 | 12 | 360 | 0.0 | 4.8 | 0.15 | 3.30 | 3.28 | 94 | 1011.3 |
| 20260508005004 | 12 | 360 | 0.0 | 4.8 | 0.15 | 3.30 | 3.28 | 94 | 1011.2 |
| 20260508004536 | 12 | 360 | 1.6 | 4.8 | 0.15 | 3.30 | 3.28 | 94 | 1011.1 |
| 20260508004007 | 12 | 360 | 0.0 | 4.8 | 0.15 | 3.30 | 3.28 | 94 | 1011.2 |
| 20260508003504 | 12 | 360 | 1.6 | 4.8 | 0.15 | 3.30 | 3.28 | 93 | 1011.6 |
| 20260508003006 | 12 | 360 | 1.6 | 4.8 | 0.13 | 3.28 | 3.25 | 93 | 1011.1 |
| 20260508002502 | 12 | 360 | 0.0 | 4.8 | 0.10 | 3.25 | 3.23 | 94 | 1011.0 |
| 20260508002003 | 12 | 360 | 0.0 | 4.8 | 0.08 | 3.23 | 3.20 | 94 | 1011.2 |
| 20260508001524 | 12 | 360 | 0.0 | 8.0 | 0.05 | 3.20 | 3.17 | 93 | 1011.4 |
| 20260508001002 | 12 | 360 | 3.2 | 8.0 | 0.00 | 3.15 | 3.12 | 93 | 1011.2 |
| 20260508000502 | 12 | 360 | 0.0 | 8.0 | 0.00 | 3.15 | 3.12 | 93 | 1010.8 |
| 20260508000015 | 12 | 360 | 3.2 | 8.0 | 0.00 | 3.15 | 3.12 | 92 | 1010.5 |
| 20260507235509 | 12 | 360 | 1.6 | 9.7 | 0.00 | 3.15 | 3.12 | 92 | 1010.0 |
| 20260507235002 | 12 | 360 | 3.2 | 9.7 | 0.00 | 3.15 | 3.12 | 92 | 1009.8 |
| 20260507234518 | 12 | 360 | 0.0 | 6.4 | 0.00 | 3.15 | 3.12 | 93 | 1010.0 |
| 20260507233504 | 12 | 360 | 3.2 | 12.9 | 0.00 | 3.15 | 3.12 | 92 | 1009.9 |
| 20260507233022 | 12 | 360 | 1.6 | 8.0 | 0.00 | 3.15 | 3.12 | 93 | 1010.0 |
| 20260507232502 | 12 | 360 | 0.0 | 9.7 | 0.00 | 3.15 | 3.12 | 93 | 1010.1 |
| 20260507232001 | 12 | 360 | 1.6 | 9.7 | 0.00 | 3.15 | 3.12 | 92 | 1010.1 |
| 20260507231509 | 12 | 360 | 3.2 | 9.7 | 0.00 | 3.15 | 3.12 | 92 | 1010.2 |
| 20260507231001 | 12 | 360 | 1.6 | 8.0 | 0.00 | 3.15 | 3.12 | 92 | 1010.0 |
| 20260507230504 | 12 | 360 | 1.6 | 8.0 | 0.00 | 3.15 | 3.12 | 92 | 1009.9 |
| 20260507230013 | 12 | 360 | 1.6 | 8.0 | 0.00 | 3.15 | 3.12 | 92 | 1009.9 |
| 20260507225506 | 12 | 360 | 3.2 | 8.0 | 0.00 | 3.15 | 3.12 | 92 | 1009.9 |
| 20260507224514 | 12 | 360 | 1.6 | 16.1 | 0.00 | 3.15 | 3.12 | 92 | 1009.7 |
| 20260507224006 | 12 | 360 | 1.6 | 9.7 | 0.00 | 3.15 | 3.12 | 92 | 1009.7 |
| 20260507223502 | 12 | 360 | 0.0 | 9.7 | 0.00 | 3.15 | 3.12 | 92 | 1009.6 |
| 20260507223021 | 12 | 360 | 0.0 | 8.0 | 0.00 | 3.15 | 3.12 | 92 | 1009.6 |
| 20260507222506 | 12 | 360 | 1.6 | 8.0 | 0.00 | 3.15 | 3.12 | 92 | 1009.5 |
| 20260507222001 | 12 | 360 | 1.6 | 8.0 | 0.00 | 3.15 | 3.12 | 93 | 1009.4 |
| 20260507221524 | 12 | 360 | 1.6 | 8.0 | 0.00 | 3.15 | 3.12 | 93 | 1009.5 |
| 20260507221003 | 12 | 360 | 0.0 | 9.7 | 0.00 | 3.15 | 3.12 | 93 | 1009.6 |
| 20260507220503 | 12 | 360 | 3.2 | 9.7 | 0.00 | 3.15 | 3.12 | 93 | 1009.3 |
| 20260507220011 | 12 | 360 | 1.6 | 8.0 | 0.00 | 3.15 | 3.12 | 93 | 1009.7 |
| 20260507215505 | 12 | 360 | 0.0 | 8.0 | 0.00 | 3.15 | 3.12 | 93 | 1009.6 |
| 20260507214512 | 12 | 360 | 3.2 | 12.9 | 0.00 | 3.15 | 3.12 | 92 | 1009.7 |
| 20260507214004 | 12 | 360 | 3.2 | 8.0 | 0.00 | 3.15 | 3.12 | 92 | 1009.6 |
| 20260507213026 | 12 | 360 | 1.6 | 20.9 | 0.00 | 3.15 | 3.12 | 92 | 1009.3 |
| 20260507212506 | 13 | 360 | 4.8 | 14.5 | 0.00 | 3.15 | 3.12 | 92 | 1009.3 |
| 20260507212014 | 13 | 360 | 4.8 | 14.5 | 0.00 | 3.15 | 3.12 | 93 | 1009.3 |
| 20260507211521 | 13 | 360 | 1.6 | 12.9 | 0.00 | 3.15 | 3.12 | 93 | 1009.2 |
| 20260507211005 | 13 | 360 | 3.2 | 12.9 | 0.00 | 3.15 | 3.12 | 93 | 1009.1 |
| 20260507210509 | 13 | 360 | 4.8 | 12.9 | 0.05 | 3.15 | 3.12 | 93 | 1009.1 |
| 20260507210008 | 13 | 360 | 4.8 | 9.7 | 0.10 | 3.15 | 3.12 | 93 | 1009.0 |
| 20260507205505 | 13 | 360 | 3.2 | 14.5 | 0.13 | 3.15 | 3.12 | 93 | 1009.0 |
| 20260507205003 | 13 | 360 | 3.2 | 17.7 | 0.15 | 3.15 | 3.12 | 93 | 1008.8 |
| 20260507204514 | 14 | 360 | 4.8 | 17.7 | 0.20 | 3.15 | 3.12 | 93 | 1008.8 |
| 20260507204006 | 14 | 360 | 3.2 | 16.1 | 0.20 | 3.15 | 3.12 | 93 | 1008.8 |
| 20260507203506 | 14 | 360 | 3.2 | 16.1 | 0.20 | 3.15 | 3.12 | 94 | 1008.9 |
| 20260507203031 | 14 | 360 | 3.2 | 17.7 | 0.20 | 3.15 | 3.12 | 94 | 1008.7 |
| 20260507202503 | 14 | 360 | 8.0 | 17.7 | 0.23 | 3.15 | 3.12 | 93 | 1008.5 |
| 20260507202010 | 14 | 360 | 3.2 | 8.0 | 0.23 | 3.15 | 3.12 | 94 | 1008.6 |
| 20260507201520 | 14 | 360 | 1.6 | 9.7 | 0.23 | 3.15 | 3.12 | 94 | 1008.8 |
| 20260507200508 | 14 | 360 | 0.0 | 12.9 | 0.18 | 3.10 | 3.07 | 93 | 1008.8 |
| 20260507200020 | 14 | 360 | 0.0 | 12.9 | 0.13 | 3.05 | 3.02 | 93 | 1008.7 |
| 20260507195503 | 14 | 360 | 4.8 | 12.9 | 0.18 | 3.02 | 2.97 | 93 | 1008.7 |
| 20260507195010 | 14 | 360 | 1.6 | 8.0 | 0.25 | 2.97 | 2.95 | 93 | 1008.7 |
| 20260507194516 | 15 | 360 | 1.6 | 12.9 | 0.33 | 2.95 | 2.92 | 93 | 1008.6 |
| 20260507194003 | 15 | 360 | 3.2 | 14.5 | 0.46 | 2.95 | 2.92 | 92 | 1008.7 |
| 20260507193503 | 15 | 360 | 4.8 | 14.5 | 0.51 | 2.95 | 2.92 | 93 | 1008.6 |
| 20260507193018 | 15 | 360 | 1.6 | 6.4 | 0.51 | 2.95 | 2.92 | 93 | 1008.5 |
| 20260507192508 | 15 | 360 | 1.6 | 9.7 | 0.48 | 2.92 | 2.90 | 93 | 1008.6 |
| 20260507192007 | 15 | 360 | 1.6 | 12.9 | 0.48 | 2.95 | 2.90 | 92 | 1008.5 |
| 20260507191520 | 15 | 360 | 4.8 | 12.9 | 0.48 | 2.95 | 2.90 | 92 | 1008.4 |
| 20260507191010 | 15 | 360 | 1.6 | 9.7 | 0.48 | 2.95 | 2.90 | 91 | 1008.8 |
| 20260507190507 | 16 | 360 | 3.2 | 17.7 | 0.48 | 2.95 | 2.90 | 90 | 1008.7 |
| 20260507190022 | 16 | 360 | 3.2 | 24.1 | 0.48 | 2.95 | 2.90 | 90 | 1008.5 |
| 20260507185507 | 17 | 360 | 8.0 | 24.1 | 0.41 | 2.90 | 2.82 | 89 | 1008.1 |
| 20260507185011 | 18 | 360 | 3.2 | 12.9 | 0.30 | 2.79 | 2.72 | 90 | 1007.4 |
| 20260507184523 | 18 | 360 | 3.2 | 12.9 | 0.18 | 2.64 | 2.59 | 89 | 1007.4 |
| 20260507184003 | 19 | 360 | 4.8 | 12.9 | 0.05 | 2.54 | 2.46 | 88 | 1007.7 |
| 20260507183506 | 20 | 213 | 3.2 | 14.5 | 0.00 | 2.49 | 2.41 | 87 | 1007.8 |
| 20260507183014 | 21 | 360 | 6.4 | 14.5 | 0.00 | 2.49 | 2.41 | 87 | 1007.7 |
| 20260507182504 | 21 | 136 | 1.6 | 3.2 | 0.00 | 2.49 | 2.41 | 91 | 1008.0 |
| 20260507182008 | 21 | 91 | 0.0 | 4.8 | 0.00 | 2.49 | 2.41 | 91 | 1007.6 |
| 20260507181516 | 21 | 44 | 0.0 | 4.8 | 0.00 | 2.49 | 2.41 | 90 | 1007.2 |
| 20260507181004 | 21 | 327 | 0.0 | 4.8 | 0.00 | 2.49 | 2.41 | 91 | 1007.5 |
| 20260507180512 | 21 | 86 | 1.6 | 4.8 | 0.00 | 2.49 | 2.41 | 93 | 1007.7 |
| 20260507180023 | 21 | 360 | 0.0 | 3.2 | 0.00 | 2.49 | 2.41 | 93 | 1007.7 |
| 20260507175008 | 21 | 360 | 0.0 | 3.2 | 0.00 | 2.49 | 2.41 | 93 | 1008.1 |
| 20260507174531 | 21 | 360 | 0.0 | 4.8 | 0.00 | 2.49 | 2.41 | 93 | 1008.3 |
| 20260507174005 | 21 | 360 | 0.0 | 4.8 | 0.00 | 2.49 | 2.41 | 92 | 1008.3 |
| 20260507173510 | 21 | 360 | 1.6 | 4.8 | 0.00 | 2.49 | 2.41 | 93 | 1008.2 |
| 20260507172504 | 21 | 188 | 0.0 | 8.0 | 0.00 | 2.49 | 2.41 | 93 | 1007.9 |
| 20260507172008 | 21 | 11 | 1.6 | 8.0 | 0.00 | 2.49 | 2.41 | 93 | 1007.8 |
| 20260507171522 | 21 | 325 | 1.6 | 8.0 | 0.00 | 2.49 | 2.41 | 94 | 1007.9 |
| 20260507171004 | 20 | 9 | 0.0 | 6.4 | 0.00 | 2.49 | 2.41 | 94 | 1007.8 |
| 20260507170508 | 20 | 29 | 1.6 | 4.8 | 0.00 | 2.49 | 2.41 | 94 | 1007.8 |
| 20260507170019 | 20 | 348 | 0.0 | 4.8 | 0.00 | 2.49 | 2.41 | 94 | 1007.9 |
| 20260507165507 | 20 | 360 | 0.0 | 6.4 | 0.00 | 2.49 | 2.41 | 94 | 1007.9 |
| 20260507165008 | 20 | 286 | 3.2 | 6.4 | 0.00 | 2.49 | 2.41 | 94 | 1008.0 |
| 20260507164521 | 20 | 5 | 1.6 | 3.2 | 0.00 | 2.49 | 2.41 | 94 | 1008.2 |
| 20260507164007 | 20 | 17 | 0.0 | 3.2 | 0.00 | 2.49 | 2.41 | 94 | 1008.5 |
| 20260507163512 | 20 | 17 | 0.0 | 3.2 | 0.00 | 2.49 | 2.41 | 94 | 1008.5 |
| 20260507163025 | 20 | 111 | 0.0 | 4.8 | 0.00 | 2.49 | 2.41 | 94 | 1008.8 |
| 20260507162511 | 20 | 100 | 0.0 | 4.8 | 0.00 | 2.49 | 2.41 | 94 | 1008.9 |
| 20260507162012 | 19 | 360 | 0.0 | 3.2 | 0.00 | 2.49 | 2.41 | 94 | 1009.0 |
| 20260507161003 | 19 | 360 | 0.0 | 4.8 | 0.03 | 2.49 | 2.41 | 94 | 1009.3 |
| 20260507160505 | 19 | 360 | 0.0 | 6.4 | 0.03 | 2.49 | 2.41 | 94 | 1009.4 |
| 20260507160016 | 19 | 360 | 0.0 | 6.4 | 0.05 | 2.49 | 2.41 | 94 | 1009.5 |
| 20260507155514 | 19 | 360 | 1.6 | 6.4 | 0.05 | 2.49 | 2.41 | 94 | 1009.7 |
| 20260507155011 | 19 | 360 | 0.0 | 4.8 | 0.10 | 2.49 | 2.41 | 94 | 1009.4 |
| 20260507154525 | 19 | 360 | 0.0 | 4.8 | 0.20 | 2.49 | 2.41 | 94 | 1009.1 |
| 20260507153509 | 19 | 360 | 0.0 | 4.8 | 0.33 | 2.49 | 2.41 | 95 | 1008.8 |
| 20260507153021 | 19 | 360 | 0.0 | 4.8 | 0.41 | 2.49 | 2.41 | 95 | 1008.6 |
| 20260507152503 | 19 | 360 | 0.0 | 4.8 | 0.43 | 2.49 | 2.41 | 94 | 1008.9 |
| 20260507152017 | 19 | 360 | 0.0 | 9.7 | 0.51 | 2.49 | 2.41 | 94 | 1009.3 |
| 20260507151011 | 18 | 360 | 1.6 | 6.4 | 0.64 | 2.46 | 2.39 | 94 | 1008.8 |
| 20260507150027 | 18 | 360 | 1.6 | 9.7 | 0.76 | 2.44 | 2.36 | 93 | 1009.0 |
| 20260507145506 | 18 | 360 | 1.6 | 12.9 | 0.84 | 2.44 | 2.36 | 93 | 1009.1 |
| 20260507145007 | 18 | 360 | 1.6 | 16.1 | 0.84 | 2.39 | 2.31 | 94 | 1009.4 |
| 20260507144521 | 18 | 360 | 4.8 | 16.1 | 0.76 | 2.29 | 2.21 | 94 | 1009.6 |
| 20260507144006 | 18 | 360 | 1.6 | 17.7 | 0.69 | 2.21 | 2.13 | 94 | 1009.7 |
| 20260507143510 | 18 | 360 | 3.2 | 17.7 | 0.64 | 2.16 | 2.08 | 94 | 1009.7 |
| 20260507143021 | 18 | 360 | 3.2 | 9.7 | 0.56 | 2.08 | 2.01 | 94 | 1009.7 |
| 20260507142509 | 19 | 360 | 1.6 | 9.7 | 0.53 | 2.06 | 1.98 | 94 | 1009.7 |
| 20260507142022 | 19 | 360 | 0.0 | 9.7 | 0.46 | 1.98 | 1.91 | 94 | 1009.7 |
| 20260507141520 | 19 | 360 | 1.6 | 9.7 | 0.41 | 1.93 | 1.85 | 94 | 1009.8 |
| 20260507141011 | 19 | 360 | 1.6 | 12.9 | 0.30 | 1.83 | 1.75 | 94 | 1009.8 |
| 20260507140509 | 19 | 360 | 3.2 | 12.9 | 0.20 | 1.73 | 1.65 | 94 | 1009.9 |
| 20260507140021 | 19 | 360 | 1.6 | 12.9 | 0.15 | 1.68 | 1.60 | 94 | 1009.9 |
| 20260507135510 | 19 | 360 | 0.0 | 4.8 | 0.08 | 1.60 | 1.52 | 94 | 1009.9 |
| 20260507135006 | 19 | 360 | 0.0 | 4.8 | 0.03 | 1.55 | 1.47 | 94 | 1010.0 |
| 20260507134518 | 19 | 360 | 0.0 | 4.8 | 0.00 | 1.52 | 1.45 | 94 | 1009.9 |
| 20260507134006 | 19 | 360 | 0.0 | 4.8 | 0.00 | 1.52 | 1.45 | 94 | 1009.9 |
| 20260507133507 | 19 | 360 | 0.0 | 4.8 | 0.00 | 1.52 | 1.45 | 94 | 1009.8 |
| 20260507133028 | 19 | 360 | 1.6 | 4.8 | 0.00 | 1.52 | 1.45 | 94 | 1009.8 |
| 20260507132512 | 19 | 360 | 0.0 | 3.2 | 0.00 | 1.52 | 1.45 | 94 | 1009.9 |
| 20260507132009 | 19 | 360 | 0.0 | 3.2 | 0.00 | 1.52 | 1.45 | 94 | 1009.8 |
| 20260507131521 | 19 | 360 | 0.0 | 4.8 | 0.00 | 1.52 | 1.45 | 94 | 1009.7 |
| 20260507131007 | 19 | 360 | 0.0 | 4.8 | 0.00 | 1.52 | 1.45 | 95 | 1009.8 |
| 20260507130510 | 19 | 360 | 0.0 | 6.4 | 0.00 | 1.52 | 1.45 | 95 | 1009.7 |
| 20260507130023 | 19 | 360 | 1.6 | 6.4 | 0.00 | 1.52 | 1.45 | 95 | 1009.6 |
| 20260507125511 | 19 | 360 | 1.6 | 6.4 | 0.00 | 1.52 | 1.45 | 95 | 1009.4 |
| 20260507125013 | 19 | 360 | 0.0 | 6.4 | 0.00 | 1.52 | 1.45 | 95 | 1009.6 |
| 20260507124527 | 18 | 360 | 3.2 | 6.4 | 0.00 | 1.52 | 1.45 | 94 | 1009.6 |
| 20260507124011 | 18 | 360 | 1.6 | 8.0 | 0.00 | 1.52 | 1.45 | 94 | 1009.7 |
| 20260507123506 | 18 | 360 | 3.2 | 8.0 | 0.00 | 1.52 | 1.45 | 95 | 1009.7 |
| 20260507123031 | 18 | 360 | 1.6 | 6.4 | 0.00 | 1.52 | 1.45 | 94 | 1009.6 |
| 20260507122508 | 18 | 360 | 3.2 | 6.4 | 0.00 | 1.52 | 1.45 | 94 | 1009.9 |
| 20260507122009 | 18 | 360 | 1.6 | 6.4 | 0.00 | 1.52 | 1.45 | 95 | 1009.9 |
| 20260507121522 | 18 | 360 | 1.6 | 6.4 | 0.00 | 1.52 | 1.45 | 95 | 1010.0 |
| 20260507121009 | 18 | 360 | 1.6 | 8.0 | 0.00 | 1.52 | 1.45 | 95 | 1010.1 |
| 20260507120509 | 18 | 360 | 1.6 | 8.0 | 0.00 | 1.52 | 1.45 | 95 | 1010.0 |
| 20260507120021 | 18 | 360 | 1.6 | 4.8 | 0.00 | 1.52 | 1.45 | 95 | 1010.2 |
| 20260507115510 | 18 | 360 | 1.6 | 6.4 | 0.00 | 1.52 | 1.45 | 94 | 1010.2 |
| 20260507115009 | 18 | 360 | 3.2 | 6.4 | 0.00 | 1.52 | 1.45 | 94 | 1010.2 |
| 20260507114521 | 18 | 360 | 0.0 | 3.2 | 0.00 | 1.52 | 1.45 | 94 | 1010.3 |
| 20260507114009 | 18 | 360 | 1.6 | 3.2 | 0.00 | 1.52 | 1.45 | 94 | 1010.4 |
| 20260507113501 | 18 | 360 | 0.0 | 4.8 | 0.03 | 1.52 | 1.45 | 94 | 1010.5 |
| 20260507113008 | 18 | 360 | 1.6 | 4.8 | 0.03 | 1.52 | 1.45 | 94 | 1010.5 |
| 20260507112503 | 18 | 360 | 1.6 | 3.2 | 0.05 | 1.52 | 1.45 | 94 | 1010.4 |
| 20260507112003 | 18 | 360 | 0.0 | 3.2 | 0.05 | 1.52 | 1.45 | 94 | 1010.3 |
| 20260507111504 | 18 | 360 | 0.0 | 3.2 | 0.05 | 1.52 | 1.45 | 94 | 1010.4 |
| 20260507111004 | 18 | 360 | 0.0 | 3.2 | 0.08 | 1.52 | 1.45 | 94 | 1010.6 |
| 20260507110504 | 18 | 360 | 1.6 | 4.8 | 0.08 | 1.52 | 1.45 | 94 | 1010.4 |
| 20260507110004 | 18 | 360 | 0.0 | 4.8 | 0.08 | 1.52 | 1.45 | 94 | 1010.6 |
| 20260507105506 | 18 | 360 | 0.0 | 3.2 | 0.08 | 1.52 | 1.45 | 94 | 1010.4 |
| 20260507105003 | 18 | 360 | 0.0 | 3.2 | 0.10 | 1.52 | 1.45 | 94 | 1010.4 |
| 20260507104504 | 18 | 360 | 0.0 | 1.6 | 0.10 | 1.52 | 1.45 | 94 | 1010.3 |
| 20260507104005 | 18 | 360 | 0.0 | 1.6 | 0.10 | 1.52 | 1.45 | 94 | 1010.3 |
| 20260507103503 | 18 | 360 | 0.0 | 3.2 | 0.08 | 1.47 | 1.42 | 94 | 1010.4 |
| 20260507103003 | 18 | 360 | 0.0 | 4.8 | 0.10 | 1.47 | 1.42 | 94 | 1010.2 |
| 20260507102502 | 18 | 360 | 0.0 | 4.8 | 0.08 | 1.47 | 1.40 | 94 | 1010.1 |
| 20260507102003 | 18 | 360 | 1.6 | 4.8 | 0.08 | 1.47 | 1.40 | 94 | 1010.0 |
| 20260507101504 | 18 | 360 | 1.6 | 4.8 | 0.08 | 1.47 | 1.40 | 94 | 1010.2 |
| 20260507101002 | 18 | 360 | 0.0 | 3.2 | 0.05 | 1.45 | 1.37 | 94 | 1010.3 |
| 20260507100502 | 18 | 360 | 0.0 | 1.6 | 0.08 | 1.45 | 1.37 | 94 | 1010.3 |
| 20260507100005 | 18 | 360 | 0.0 | 4.8 | 0.08 | 1.45 | 1.37 | 94 | 1010.3 |
| 20260507095504 | 18 | 360 | 0.0 | 4.8 | 0.08 | 1.45 | 1.37 | 94 | 1010.2 |
| 20260507095004 | 18 | 360 | 0.0 | 4.8 | 0.05 | 1.42 | 1.32 | 94 | 1010.0 |
| 20260507094504 | 18 | 360 | 1.6 | 4.8 | 0.05 | 1.42 | 1.32 | 94 | 1010.2 |
| 20260507094008 | 18 | 360 | 0.0 | 1.6 | 0.05 | 1.42 | 1.32 | 94 | 1010.1 |
| 20260507093506 | 18 | 360 | 0.0 | 0.0 | 0.05 | 1.42 | 1.32 | 94 | 1010.2 |
| 20260507093005 | 18 | 360 | 0.0 | 0.0 | 0.05 | 1.40 | 1.32 | 94 | 1010.2 |
| 20260507092505 | 18 | 360 | 0.0 | 0.0 | 0.13 | 1.40 | 1.32 | 94 | 1010.1 |
| 20260507092004 | 18 | 360 | 0.0 | 0.0 | 0.18 | 1.40 | 1.32 | 94 | 1009.9 |
| 20260507091504 | 18 | 360 | 0.0 | 0.0 | 0.20 | 1.40 | 1.32 | 94 | 1010.1 |
| 20260507091003 | 18 | 360 | 0.0 | 6.4 | 0.23 | 1.40 | 1.32 | 94 | 1010.2 |
| 20260507090503 | 18 | 360 | 0.0 | 6.4 | 0.20 | 1.37 | 1.30 | 94 | 1010.1 |
| 20260507090010 | 18 | 360 | 0.0 | 8.0 | 0.20 | 1.37 | 1.30 | 94 | 1010.1 |